[[{"header":{"parameterUnit":"m.s-1","parameterCategory":1,"la1":30.2991,"la2":30.254,"lo1":-89.0895,"lo2":-89.0444,"dy":0.0017,"dx":0.0017,"nx":28,"ny":28,"refTime":"2023-07-18T21:00:00:Z","depth":0,"parameterNumber":2,"parameterNumberName":"U-component_of_WINDS"},"data":[0,0,0,0,0,0,0,0,0,0,0,0,0,0,0,0,0,0,0,0,0,0,0,0,0,0,0,0,0,0,0,0,0,0,0,0,0,0,0,0,0,0,0,0,0,0,0,0,0,0,0,0,0,0,0,0,0,0,-0.7066,-0.7066,0,-0.7017,-0.7017,-0.7016,-0.7011,-0.7012,-0.7012,-0.7013,-0.6958,-0.6956,-0.6954,0,0,0,0,0,0,0,0,0,0,0,0,0,-0.7151,-0.7149,-0.7066,-0.7066,-0.7065,-0.7017,-0.7017,-0.7016,-0.7011,-0.7012,-0.7013,-0.7013,-0.6958,-0.6956,-0.6954,0,0,0,0,0,0,0,0,0,0,0,0,0,-0.7109,-0.7149,-0.7067,-0.7057,-0.7056,-0.7017,-0.7017,-0.7016,-0.7011,-0.7012,-0.7013,-0.7014,-0.6959,-0.6956,-0.6953,-0.6919,0,0,-0.6944,-0.6943,0,0,0,0,0,0,0,0,-0.7111,-0.7106,-0.7059,-0.7058,-0.7056,-0.7021,-0.7026,-0.6983,-0.7011,-0.7028,-0.7013,-0.7014,-0.6978,-0.6974,-0.6962,-0.6917,-0.6914,-0.6944,-0.6942,-0.6941,-0.694,0,0,0,0,0,0,0,-0.7114,-0.7108,-0.7047,-0.7058,-0.7057,-0.7054,-0.7049,-0.7018,-0.6999,-0.7027,-0.7026,-0.7021,-0.6977,-0.6965,-0.6961,-0.6914,-0.6944,-0.6942,-0.694,-0.6939,-0.6835,-0.6834,0,0,0,0,0,0,-0.712,-0.7111,-0.7048,-0.7045,-0.7087,-0.7052,-0.7046,-0.7032,-0.6999,-0.6995,-0.702,-0.7021,-0.697,-0.6965,-0.6959,-0.6916,-0.6941,-0.6938,-0.6937,-0.6836,-0.6835,-0.6834,0,0,0,0,0,0,-0.7122,-0.7114,-0.705,-0.7078,-0.7069,-0.7049,-0.7033,-0.703,-0.7018,-0.6994,-0.6991,-0.7012,-0.697,-0.6963,-0.6929,-0.6914,-0.6937,-0.6934,-0.6837,-0.6836,-0.6834,-0.6829,0,0,0,0,0,0,-0.7124,-0.7115,-0.7103,-0.7078,-0.7068,-0.7023,-0.7032,-0.7029,-0.7014,-0.7014,-0.6986,-0.6981,-0.697,-0.6934,-0.6926,-0.691,-0.6932,-0.6839,-0.6837,-0.6835,-0.6831,-0.6828,-0.6826,0,0,0,0,0,-0.7127,-0.7103,-0.7103,-0.7095,-0.7053,-0.7022,-0.7016,-0.7006,-0.7013,-0.7,-0.6984,-0.6982,-0.6917,-0.693,-0.6922,-0.6905,-0.6839,-0.6837,-0.6835,-0.6832,-0.6829,-0.6826,0,0,0,0,0,0,-0.7126,-0.71,-0.7099,-0.7066,-0.7047,-0.7021,-0.7005,-0.7002,-0.6979,-0.698,-0.6966,-0.696,-0.6926,-0.6912,-0.6927,-0.6869,-0.6879,-0.6875,-0.6879,-0.6876,-0.6873,-0.6876,-0.693,0,0,0,0,0,-0.7122,-0.7101,-0.7078,-0.7052,-0.7042,-0.7025,-0.7011,-0.7005,-0.6983,-0.6974,-0.6956,-0.6934,-0.6908,-0.6891,-0.6866,-0.6829,-0.6821,-0.6813,-0.681,-0.6808,-0.6804,-0.6782,-0.6777,-0.6827,-0.6827,-0.6827,0,0,-0.7114,-0.7097,-0.7084,-0.7051,-0.7035,-0.7011,-0.7018,-0.6993,-0.6975,-0.697,-0.6937,-0.6922,-0.6896,-0.686,-0.6843,-0.6847,-0.6789,-0.6805,-0.6804,-0.6801,-0.6779,-0.6774,-0.677,-0.6825,-0.6825,-0.6826,0,0,-0.7086,-0.7072,-0.7047,-0.7031,-0.7007,-0.6996,-0.699,-0.6965,-0.6956,-0.6923,-0.6918,-0.6895,-0.6852,-0.6833,-0.6817,-0.6781,-0.6778,-0.6773,-0.6759,-0.6737,-0.6733,-0.6729,-0.6715,-0.671,-0.677,-0.677,-0.677,0,-0.7078,-0.7044,-0.7035,-0.7009,-0.6994,-0.699,-0.6964,-0.6948,-0.6917,-0.6905,-0.6911,-0.6855,-0.6837,-0.6796,-0.6787,-0.6775,-0.6766,-0.6776,-0.6735,-0.6731,-0.6727,-0.6713,-0.6708,-0.6769,-0.677,-0.677,-0.677,0,-0.7034,-0.701,-0.6993,-0.6964,-0.6947,-0.6921,-0.6906,-0.689,-0.6884,-0.6872,-0.6837,-0.6815,-0.6785,-0.6775,-0.6769,-0.6732,-0.6735,-0.6738,-0.6747,-0.6722,-0.6709,-0.6703,-0.6769,-0.6769,-0.6769,-0.6769,0,0,-0.7004,-0.697,-0.6964,-0.695,-0.6923,-0.6903,-0.6876,-0.6848,-0.6833,-0.6812,-0.6787,-0.675,-0.6752,-0.6735,-0.6727,-0.6708,-0.6678,-0.6712,-0.6711,-0.6705,-0.6633,-0.663,-0.6625,-0.6676,-0.6675,-0.6674,-0.6635,0,-0.6972,-0.6926,-0.6917,-0.6876,-0.6853,-0.6848,-0.6824,-0.6804,-0.6791,-0.6768,-0.6754,-0.6727,-0.6733,-0.6722,-0.6703,-0.6686,-0.6663,-0.6689,-0.6651,-0.665,-0.6657,-0.6618,-0.6615,-0.6579,-0.663,-0.6629,-0.6628,0,-0.6929,-0.6907,-0.6865,-0.6839,-0.6829,-0.6808,-0.6781,-0.6759,-0.6735,-0.6727,-0.6708,-0.6701,-0.6671,-0.6683,-0.6639,-0.6657,-0.6641,-0.663,-0.6628,-0.6623,-0.6637,-0.661,-0.6567,-0.6561,-0.662,-0.6621,-0.6621,0,-0.6909,-0.6869,-0.6838,-0.6827,-0.6797,-0.6782,-0.6768,-0.6745,-0.6728,-0.6704,-0.6692,-0.6664,-0.6648,-0.6626,-0.6611,-0.6621,-0.6568,-0.6579,-0.6559,-0.6559,-0.6547,-0.6548,-0.6499,-0.6539,-0.6539,-0.6539,-0.6539,0,-0.6874,-0.6848,-0.6829,-0.681,-0.6779,-0.6768,-0.6737,-0.6724,-0.6703,-0.6679,-0.6673,-0.6651,-0.6633,-0.6608,-0.6596,-0.6561,-0.6554,-0.6545,-0.6542,-0.6545,-0.6546,-0.6533,-0.6535,-0.6538,-0.6538,-0.6538,-0.6539,0,-0.6847,-0.6834,-0.6799,-0.6774,-0.6767,-0.6745,-0.6722,-0.6702,-0.669,-0.666,-0.6652,-0.6631,-0.66,-0.6584,-0.6545,-0.6537,-0.6497,-0.6496,-0.6506,-0.6504,-0.6484,-0.6486,-0.6425,-0.6415,-0.6463,-0.6463,-0.6462,0,-0.6825,-0.6804,-0.6777,-0.6761,-0.6748,-0.6723,-0.6706,-0.6693,-0.6675,-0.6645,-0.6628,-0.6598,-0.6573,-0.6524,-0.6504,-0.6474,-0.6471,-0.6452,-0.6466,-0.6469,-0.6469,-0.647,-0.6466,-0.6449,-0.6449,-0.6448,-0.6448,0,-0.6786,-0.678,-0.6757,-0.673,-0.6711,-0.6689,-0.6667,-0.6654,-0.6637,-0.6617,-0.6587,-0.6567,-0.6528,-0.6497,-0.6466,-0.6449,-0.6445,-0.6444,-0.6437,-0.6439,-0.6445,-0.644,-0.6497,-0.6445,-0.6445,-0.6445,-0.6446,-0.6446,-0.6759,-0.6741,-0.6718,-0.6691,-0.6674,-0.6654,-0.6633,-0.6618,-0.6593,-0.6561,-0.6555,-0.6522,-0.6496,-0.6453,-0.6436,-0.6409,-0.6412,-0.6403,-0.64,-0.6398,-0.6396,-0.645,-0.6403,-0.6403,-0.6403,-0.6403,-0.6403,0,-0.6719,-0.6704,-0.668,-0.665,-0.6629,-0.6629,-0.6604,-0.6586,-0.6557,-0.6535,-0.651,-0.6474,-0.6444,-0.6421,-0.639,-0.6372,-0.6369,-0.6364,-0.6364,-0.636,-0.6396,-0.6404,-0.6367,-0.6367,-0.6367,-0.6367,-0.6367,-0.6367,-0.6696,-0.6663,-0.6654,-0.6612,-0.6597,-0.6566,-0.6552,-0.6532,-0.6514,-0.6474,-0.645,-0.6436,-0.6412,-0.6379,-0.635,-0.6344,-0.6332,-0.6327,-0.632,-0.6354,-0.6358,-0.6361,-0.6369,-0.6325,-0.6324,-0.6286,-0.6286,-0.6285]},{"header":{"parameterUnit":"m.s-1","parameterCategory":1,"la1":30.2991,"la2":30.254,"lo1":-89.0895,"lo2":-89.0444,"dy":0.0017,"dx":0.0017,"nx":28,"ny":28,"refTime":"2023-07-18T21:00:00:Z","depth":0,"parameterNumber":3,"parameterNumberName":"V-component_of_WINDS"},"data":[0,0,0,0,0,0,0,0,0,0,0,0,0,0,0,0,0,0,0,0,0,0,0,0,0,0,0,0,0,0,0,0,0,0,0,0,0,0,0,0,0,0,0,0,0,0,0,0,0,0,0,0,0,0,0,0,0,0,1.6849,1.6849,0,1.6794,1.6794,1.6793,1.6812,1.6814,1.6815,1.6816,1.6759,1.6756,1.6753,0,0,0,0,0,0,0,0,0,0,0,0,0,1.6969,1.6967,1.6849,1.6849,1.6848,1.6794,1.6794,1.6793,1.6812,1.6814,1.6815,1.6817,1.6759,1.6756,1.6753,0,0,0,0,0,0,0,0,0,0,0,0,0,1.6916,1.6966,1.685,1.6851,1.6851,1.6795,1.6794,1.6793,1.6812,1.6814,1.6816,1.6817,1.676,1.6757,1.6753,1.6691,0,0,1.674,1.6739,0,0,0,0,0,0,0,0,1.6919,1.6912,1.6852,1.6851,1.685,1.6812,1.6815,1.6759,1.6811,1.6827,1.6816,1.6818,1.6775,1.677,1.6755,1.6688,1.6686,1.674,1.6738,1.6736,1.6735,0,0,0,0,0,0,0,1.6923,1.6914,1.6828,1.6851,1.685,1.6854,1.6849,1.6804,1.6791,1.6825,1.6827,1.682,1.6775,1.6759,1.6754,1.6685,1.674,1.6737,1.6734,1.6732,1.6562,1.656,0,0,0,0,0,0,1.6927,1.6917,1.6829,1.6826,1.689,1.685,1.6844,1.6823,1.6792,1.6789,1.6818,1.6821,1.6765,1.6759,1.6752,1.6675,1.6736,1.6732,1.673,1.6565,1.6562,1.656,0,0,0,0,0,0,1.6929,1.6919,1.6832,1.6872,1.6861,1.6846,1.6822,1.682,1.6805,1.6786,1.6784,1.6805,1.6766,1.6758,1.6706,1.6674,1.673,1.6727,1.6567,1.6564,1.6561,1.6523,0,0,0,0,0,0,1.6933,1.692,1.6896,1.6871,1.6859,1.6786,1.682,1.6818,1.6798,1.6801,1.6773,1.677,1.6767,1.6711,1.6702,1.6669,1.6723,1.657,1.6566,1.6562,1.6527,1.6519,1.6512,0,0,0,0,0,1.6937,1.6888,1.6895,1.6885,1.683,1.6784,1.6777,1.6775,1.6795,1.6771,1.6759,1.6771,1.668,1.6706,1.6695,1.6661,1.6572,1.6567,1.6562,1.653,1.6521,1.6513,0,0,0,0,0,0,1.691,1.6885,1.6892,1.6834,1.6811,1.6788,1.6757,1.6765,1.6735,1.6739,1.6738,1.6731,1.6677,1.6665,1.6694,1.6599,1.6629,1.6622,1.6608,1.6599,1.6592,1.6594,1.672,0,0,0,0,0,1.6897,1.6863,1.6843,1.6794,1.6782,1.6772,1.6752,1.6752,1.6728,1.6718,1.6703,1.6679,1.6644,1.6622,1.6589,1.6527,1.652,1.6498,1.6491,1.6485,1.6477,1.6441,1.643,1.6544,1.6544,1.6544,0,0,1.687,1.6853,1.6831,1.6788,1.677,1.6733,1.6763,1.6724,1.6696,1.6712,1.6661,1.6649,1.6622,1.6564,1.6537,1.6551,1.6445,1.6479,1.6474,1.647,1.6435,1.6424,1.6415,1.6541,1.6542,1.6542,0,0,1.6802,1.6787,1.6742,1.6724,1.6697,1.669,1.668,1.6655,1.6647,1.6596,1.6607,1.6575,1.6516,1.6496,1.6478,1.6402,1.641,1.6392,1.6351,1.6316,1.6307,1.6299,1.6269,1.6258,1.6385,1.6385,1.6385,0,1.6771,1.6717,1.6718,1.6677,1.6657,1.6671,1.6625,1.6607,1.6571,1.6556,1.6573,1.6499,1.6482,1.6418,1.6399,1.6386,1.6372,1.6393,1.6308,1.63,1.6293,1.6264,1.6253,1.6383,1.6383,1.6383,1.6383,0,1.668,1.6642,1.661,1.6574,1.6551,1.6508,1.6501,1.6477,1.648,1.6471,1.6419,1.6399,1.6362,1.6348,1.635,1.6283,1.6292,1.6309,1.6338,1.6279,1.6252,1.6241,1.6379,1.638,1.6381,1.6381,0,0,1.659,1.6556,1.6544,1.6526,1.6498,1.6468,1.6426,1.639,1.6368,1.6343,1.6306,1.6256,1.6271,1.6251,1.6251,1.6221,1.6158,1.6241,1.624,1.6223,1.608,1.6065,1.6052,1.6165,1.6163,1.6162,1.6081,0,1.6517,1.6442,1.6441,1.6372,1.6335,1.6349,1.6311,1.6289,1.628,1.6248,1.6239,1.6202,1.6226,1.6214,1.6184,1.6172,1.6129,1.6178,1.6128,1.6126,1.6131,1.6038,1.6022,1.5947,1.6071,1.6069,1.6068,0,1.6421,1.6392,1.6318,1.6293,1.6278,1.6245,1.621,1.618,1.6155,1.6151,1.6128,1.6134,1.6089,1.6123,1.606,1.6094,1.6074,1.6065,1.6062,1.6054,1.6091,1.6025,1.5923,1.591,1.6052,1.6053,1.6054,0,1.6358,1.6301,1.6249,1.6235,1.6206,1.6181,1.6168,1.6145,1.6123,1.6094,1.6079,1.6045,1.6026,1.5999,1.5995,1.602,1.5931,1.5965,1.5924,1.5924,1.5902,1.5903,1.5792,1.5896,1.5896,1.5896,1.5896,0,1.6274,1.6227,1.6221,1.6188,1.6136,1.6137,1.6085,1.6074,1.6054,1.6018,1.6029,1.5996,1.5994,1.596,1.5957,1.5904,1.5896,1.589,1.5889,1.5887,1.5887,1.5871,1.5874,1.5893,1.5894,1.5894,1.5895,0,1.6193,1.6188,1.6131,1.6108,1.6102,1.6064,1.6044,1.6012,1.6006,1.5961,1.5951,1.5939,1.5899,1.5893,1.5847,1.5845,1.578,1.5787,1.5788,1.5788,1.5746,1.5749,1.5618,1.56,1.5719,1.5718,1.5717,0,1.6138,1.6102,1.6076,1.6053,1.6038,1.6002,1.5979,1.5979,1.5955,1.5924,1.5895,1.5857,1.5825,1.5761,1.5748,1.5713,1.5716,1.5673,1.571,1.5709,1.5711,1.5711,1.5706,1.5664,1.5663,1.5662,1.5661,0,1.6039,1.6038,1.6005,1.597,1.5943,1.5916,1.5891,1.5872,1.5868,1.584,1.5799,1.5775,1.5728,1.5688,1.5653,1.5639,1.5648,1.565,1.5638,1.5633,1.5634,1.5629,1.5764,1.5652,1.5653,1.5653,1.5654,1.5654,1.5967,1.5935,1.5911,1.5873,1.5854,1.583,1.5799,1.5788,1.5754,1.5715,1.5718,1.5672,1.5648,1.5601,1.5584,1.5548,1.5562,1.5546,1.5541,1.5536,1.553,1.5643,1.5543,1.5543,1.5543,1.5543,1.5543,0,1.5865,1.585,1.5816,1.578,1.575,1.5764,1.5736,1.571,1.567,1.5646,1.5615,1.5568,1.553,1.5514,1.5477,1.5451,1.5454,1.5441,1.544,1.5436,1.5521,1.5534,1.5439,1.5439,1.5439,1.5439,1.5439,1.5439,1.5808,1.5754,1.575,1.5686,1.5672,1.5627,1.561,1.5587,1.5568,1.5515,1.5483,1.5474,1.5453,1.5414,1.538,1.5376,1.536,1.5344,1.5342,1.5421,1.5431,1.5441,1.5452,1.5342,1.5341,1.526,1.5259,1.5258]}]]